www.pogodaiklimat.ru

Погода и климат >> Архив погоды >> Россия >> Приморский край >> Терней


АРХИВ ПОГОДЫ в Тернее

Время (UTC), дата Ветер
(напр.,м/с)
 
Видим.   Явления Облачность Т
(С)
Тd
(С)
f
(%)
Тe
(С)
Тes
(С)
Комфортность P
(гПа)
Po
(гПа)
Тmin
(С)
Tmax
(С)
R
(мм)
R24
(мм)
S
(см)
21 18.05 ЮВ 1 2000 м дымка 8/0
[Ac trans]
+6.2 +5.5 95 +5 +6 1013.8 1006.2 +6.1
00 19.05 СВ 2 50 км 8/0
[Ac trans Cs]
+12.2 +6.5 68 +11 +20 1013.5 1006.0
03 19.05 В 4 50 км 6/0
[Ac trans Cc]
+15.2 +8.2 63 +14 +24 1012.6 1005.2
06 19.05 В 3
{10}
50 км 6/0
[Ac trans]
+12.1 +8.4 78 +11 +16 1011.3 1003.9
09 19.05 СВ 1 50 км 8/3 200 м
[St Ac As]
+10.7 +8.5 86 +10 +11 1010.8 1003.3 +18.9
12 19.05 В 1 20 км 8/0
[Ac trans]
+8.5 +7.6 94 +8 +8 1012.1 1004.5
15 19.05 В 1 2000 м дымка 8/0
[Ac trans]
+7.4 +6.7 95 +6 +6 1011.2 1003.7
18 19.05 В 2 200 м туман ?/? +6.9 +6.4 97 +4 +4 1009.5 1001.9
21 19.05 В 2 500 м туман ?/? +9.2 +9.2 100 +7 +7 1007.5 1000.1 +6.4
00 20.05 ЮВ 1 1000 м дымка {туман} 10/10 200 м
[St]
+9.4 +9.0 97 +9 +9 1006.0 998.5
03 20.05 ЮВ 3 1000 м слаб. ливневой дождь 10/10 200 м
[Cb cap]
+10.9 +10.4 97 +9 +9 1004.7 997.3
06 20.05 ЮВ 3 1000 м ливневой дождь 10/10 200 м
[Cb cap]
+10.8 +10.2 96 +9 +9 1001.7 994.3
09 20.05 ЮВ 3 1000 м ливневой дождь 10/10 200 м
[Cb cap]
+10.7 +10.2 97 +9 +9 1000.3 992.9 +11.1 22
12 20.05 ЮВ 2 4000 м ливневой дождь 10/10 200 м
[Cb cap]
+10.7 +10.1 96 +9 +9 999.2 991.9
15 20.05 ЮВ 2 4000 м слаб. ливневой дождь 10/10 200 м
[Cb cap]
+9.5 +8.9 96 +8 +8 997.5 990.1
18 20.05 ЮВ 1 2000 м в посл. час ливневой дождь 10/10 100 м
[St]
+8.2 +7.7 97 +7 +7 997.2 989.8
21 20.05 ЮВ 2 200 м туман ?/? +8.2 +7.8 97 +6 +6 996.9 989.5 +7.7 17
00 21.05 ЮВ 2 200 м туман ?/? +9.2 +8.7 97 +7 +7 996.2 988.8
03 21.05 ЮВ 4 1000 м дымка {туман} 10/10 200 м
[St]
+10.8 +8.9 88 +8 +8 995.4 988.1
06 21.05 В 3 1000 м дымка {туман} 10/10 100 м
[St]
+9.6 +7.9 89 +7 +7 995.0 987.6
09 21.05 В 1
{10}
1000 м дымка 10/10 100 м
[St]
+7.2 +6.6 96 +6 +6 996.2 988.8 +12.6
12 21.05 ЮВ 2 200 м туман ?/? +6.5 +6.5 100 +4 +4 997.9 990.4
15 21.05 В 1 200 м туман 10/0
[]
+6.5 +6.2 98 +5 +5 997.8 990.3
18 21.05 ЮЗ 2 200 м туман ?/? +5.2 +5.2 100 +2 +2 997.5 990.0
21 21.05 штиль 0 4000 м дымка {туман} 6/6 200 м
[St]
+6.2 +5.7 97 +5 +6 998.4 990.9 +4.5
00 22.05 ЮВ 1 50 км {туман} 4/1 200 м
[St Ac trans]
+9.9 +8.2 89 +9 +20 опасность
простуды
997.8 990.4
03 22.05 ЮВ 3
{10}
2000 м дымка 10/10 100 м
[St]
+7.4 +6.0 91 +4 +4 998.6 991.2
06 22.05 В 3 50 км 6/3 100 м
[St Ac As]
+9.9 +7.0 82 +8 +12 997.2 989.8
09 22.05 ЮЗ 1
{10}
500 м туман ?/? +6.9 +6.2 95 +6 +6 998.9 991.5 +10.9
12 22.05 СЗ 1 500 м туман {ливн. осадки} ?/? +7.5 +7.0 97 +6 +6 1000.6 993.1
15 22.05 ЮВ 1 20 км в посл. час туман {ливн. осадки} 10/10 200 м
[St]
+7.4 +6.8 96 +6 +6 1000.6 993.2
18 22.05 З 3 20 км {ливн. осадки, туман} 3/3 600 м
[Sc diur, vesp]
+8.8 +8.1 95 +6 +6 1000.8 993.4
21 22.05 З 2 50 км 3/3 600 м
[Sc]
+9.9 +7.7 86 +8 +10 1002.6 995.2 +6.8 0.0
00 23.05 З 3 50 км 4/3 600 м
[Sc diur, vesp Cc]
+17.9 +6.9 49 +18 +25 1003.0 995.8
03 23.05 З 3 50 км 8/8 600 м
[Sc diur, vesp]
+18.7 +4.7 40 +19 +22 1003.4 996.2
06 23.05 В 1 50 км в посл. час ливневой дождь 8/8 600 м
[Cb cap]
+18.0 +5.7 44 +19 +22 1003.4 996.2
09 23.05 Ю 1 50 км в посл. час ливневой дождь 6/6 600 м
[Cb cap]
+16.4 +9.0 62 +17 +18 1004.0 996.8 +20.2 0.0
12 23.05 З 3 20 км {ливн. осадки} 3/3 600 м
[Sc diur, vesp]
+13.1 +6.8 66 +12 +12 1005.8 998.5
15 23.05 СЗ 3 20 км ясно +9.9 +7.4 84 +8 +8 1006.2 998.7
18 23.05 СЗ 5 20 км ясно +10.0 +6.7 80 +7 +7 1007.2 999.8
21 23.05 СЗ 4 н/о н/о +11.0 +7.0 76 +9 +9 1007.3 999.9 +8.6
00 24.05 СЗ 2 50 км 10/4 600 м
[Sc Ac trans Ci sp]
+19.6 +8.0 47 +21 +25 комфорт 1007.4 1000.2
03 24.05 СЗ 1 50 км 9/9 600 м
[Sc]
+18.7 +7.7 49 +20 +22 1007.4 1000.2
06 24.05 СВ 1 50 км 8/3 600 м
[Sc Ac trans]
+18.9 +7.0 46 +20 +26 1006.1 998.8
09 24.05 В 1 50 км 9/8 600 м
[Sc Ac cast]
+14.8 +5.8 55 +15 +16 1005.0 997.7 +21.5
12 24.05 Ю 1 20 км 5/0
[Ac cast Ci fib]
+10.9 +5.5 69 +11 +11 1005.8 998.3
15 24.05 З 1 20 км ясно +8.9 +6.3 84 +8 +8 1005.0 997.6
18 24.05 СЗ 2 20 км ясно +10.2 +7.9 86 +9 +9 1003.8 996.4
21 24.05 СЗ 2 50 км ясно +12.2 +8.9 80 +11 +13 1003.1 995.8 +8.8
00 25.05 С 1 50 км 8/0
[Cc]
+21.8 +10.3 48 +24 +36 комфорт 1002.1 995.0
03 25.05 СВ 2 50 км 8/0
[As trans Cs]
+14.0 +6.8 62 +14 +27 опасность
простуды
1002.0 994.7
06 25.05 ЮВ 1 50 км 8/0
[Ac trans Cs]
+17.6 +7.1 50 +19 +28 1001.0 993.8
09 25.05 С 1 50 км 8/0
[Ac trans Ci fib]
+16.6 +7.5 55 +18 +19 1001.7 994.4 +21.9
12 25.05 ЮЗ 2 20 км 8/0
[Ac trans]
+24.5 +4.3 27 +24 +24 комфорт 1003.6 996.5
15 25.05 ЮЗ 1 20 км 3/0
[Ac trans]
+22.5 +5.4 33 +23 +23 комфорт 1004.5 997.4
18 25.05 З 1 20 км 8/0
[Ci sp]
+20.0 +7.5 44 +22 +22 комфорт 1005.6 998.4

 

Местоположение метеостанции Терней (Приморский край, Россия): широта 45.00 долгота 136.60 высота над уровнем моря 62 м.

В архиве по умолчанию представлена погода в Тернее за последнюю неделю. Архивные данные за месяц целиком и за предыдущие месяцы, начиная с января 2011 года, Вы можете получить, выбрав интересующий диапазон дат из раскрывающегося списка и нажав кнопку "Ввод!".


*Определитесь, кто Вы:
робот инопланетянин человек

Внимание! Время в таблицах - всемирное. Для получения местного времени необходимо прибавить поправку, которая равна 10 ч.

Смотрите также архив погоды в соседних городах и на ближайших метеорологических станциях:

Погода в Малой Кеме (Приморский край, Россия) (59 км)
Погода в Рудной Пристани (Приморский край, Россия) (94 км)
Погода в Мельничном (Приморский край, Россия) (100 км)
Погода в Богополе (Приморский край, Россия) (126 км)
Погода в Кавалерово (Приморский край, Россия) (152 км)
Погода в Глубинном (Приморский край, Россия) (156 км)
Погода в Ольге (Приморский край, Россия) (173 км)
Погода в Дальнегорске (Приморский край, Россия) (181 км)
Погода в Малиново (Приморский край, Россия) (194 км)
Погода в Красном Яре (Приморский край, Россия) (198 км)

Пояснения к столбцам:

Ветер - указаны скорость ветра в м/с - средняя за 10 мин, порывы в срок и между сроками (в фигурных скобках) и направление, откуда дует ветер: С - северный, СВ - северо-восточный, В - восточный, ЮВ - юго-восточный, Ю - южный, ЮЗ - юго-западный, З - западный, СЗ - северо-западный.
Видимость - горизонтальная дальность видимости в метрах или километрах. При видимости от 1 до 10 км при отсутствии осадков обычно наблюдается дымка, при ухудшении видимости до 1 км и менее - туман. В сухую погоду видимость может ухудшаться дымом, пылью или мглою.
Явления - указаны атмосферные явления, наблюдавшиеся в срок или в последний час перед сроком; фигурными скобками обозначены явления, наблюдавшиеся между сроками (за 1-3 часа до срока); квадратными скобками обозначены град или гололедные отложения с указанием их диаметра в мм.
Облачность - указаны через наклонную черту общая и нижняя облачность в баллах и высота нижней границы облаков в метрах; квадратными скобками обозначены формы облаков: Ci - перистые, Cs - перисто-слоистые, Cc - перисто-кучевые, Ac - высококучевые, As - высокослоистые, Sc - слоисто-кучевые, Ns - слоисто-дождевые, Cu - кучевые, Cb - кучево-дождевые. Подробнее классификацию облаков см. в Атласе облаков (PDF).
T - Температура воздуха - температура, измеренная на высоте 2 м над землей.
Td - Температура точки росы - температура, при понижении до которой содержащийся в воздухе водяной пар достигнет насыщения.
f - Относительная влажность воздуха - влажноcть воздуха, измеренная на высоте 2 м над землей.
Te - Эффективная температура - температура, которую ощущает одетый по сезону человек в тени. Характеристика душности погоды. При расчете учитывается влияние влажности воздуха и скорости ветра на теплоощущения человека.
Tes - Эффективная температура на солнце - температура, которую ощущает человек, с поправкой на солнечный нагрев. Характеристика знойности погоды. Зависит от высоты солнца над горизонтом, облачности и скорости ветра. Ночью, в пасмурную погоду, а также при ветре 12 м/с и более поправка равна нулю.
P - Атмосферное давление - приведенное к уровню моря атмосферное давление.
Po - Атмосферное давление - измеренное на уровне метеостанции атмосферное давление.
Tmin - Минимальная температура - минимум температуры воздуха на высоте 2 м над землей.
Tmax - Максимальная температура - максимум температуры воздуха на высоте 2 м над землей.
R - Количество осадков - Количество выпавших осадков за период времени, мм. При наведении курсора мыши на число - период времени, за который выпало указанное количество осадков.
R24 - Количество осадков - Количество выпавших осадков за 24 часа, мм.
S - Снежный покров - Высота снежного покрова, см. При наведении курсора мыши на число - состояние снежного покрова и степень покрытия местности в баллах.